COSMOS 713

Satellite information

Favourite Embed

Satellite Type and Status

PAYLOADIN ORBIT

Key statistics

Satellite COSMOS 713 at a glance.

Uptime

18450

Days in orbit

Revolutions

≈ 12.6

Per day

Orbit

LEO

Low Earth Orbit

Inclination

74.0

Latest

Satellite identification and parameters

Extended collection of information and parameters for COSMOS 713.

Object identification

Identified? True

Debris? False

Object name: COSMOS 713

International designator: 1975-016C

Object number (NORAD): 7680

Object ID (CCSDS): 7680

Country: COMMONWEALTH OF INDEPENDENT STATES (CIS)

Current information (Y/N): Y

RCS size: MEDIUM

Orbital parameters

Period: 114.68 minutes

Inclination: 74.0033 deg

SMA: 7819.007 km

Apoapsis: 1486.798 km

Periapsis: 1394.947 km

RAAN: 45.115 deg

Eccentricy: 0.0058736

Argument of periapsis: 222.0292 deg

Mean anomaly: 252.8434 deg

Mean motion: 12.55669426 rev/day

Mean motion (dot): 0.00000004 rev/day2

B* drag term: 0.00012523824 1/REarth

Two-line elements (TLE)

Creation date: Sept. 3, 2025, 2:21 a.m.

Reference frame: TEME

Reference center: EARTH

Epoch: Sept. 2, 2025, 10:07 p.m. UTC

TLE line 0: 0 COSMOS 713

TLE line 1: 1 07680U 75016C 25245.92156280 .00000004 00000-0 12524-3 0 9992

TLE line 2: 2 07680 74.0033 45.1150 0058736 222.0292 252.8434 12.55669426315344

Live tracking on map

Real-time ground track for satellite COSMOS 713.

In-orbit conjunctions

There are no conjunctions computed for COSMOS 713, at the moment. Check back to stay up to date, as we update our databases every day.

Go to all conjunctions

Associated space launch

Military communications satellites

COSMOS 713 was lifted into orbit during the mission ‘Kosmos-3M | Strela-1M 81-88’, on board a Kosmos-3M space rocket.

The launch took place on Feb. 28, 1975, 2:01 p.m. from 132/2.

For more information about the launch, click the button.

Launch to space Kosmos-3M | Strela-1M 81-88
Kosmos-3M | Strela-1M 81-88

Agency: N/A

Status: Launch Successful

Launch date: Feb. 28, 1975, 2:01 p.m. UTC

Rocket: Kosmos-3M

Launch pad: 132/2

Location: Plesetsk Cosmodrome, Russian Federation

...

Latest news about this satellite

There are no fresh news available about this satellite. Check back as we update our databases every day.


Newsletter sign-up

Weekly statistics, charts and insights to help you stay on top of the space industry.